{"data":{"norad_id":55433,"intl_designator":"2023-014AU","name":"STARLINK-5570","alt_names":[],"object_type":"PAYLOAD","status":"ACTIVE","operator":null,"country":"US","launch_date":"2023-01-31","launch_site_code":"AFWTR","launch_vehicle":null,"mission":null,"orbit_class":"UNKNOWN","rcs_meters":null,"size_class":null,"mass_kg":null,"dimensions":null,"purposes":["comms"],"wikipedia_slug":null,"has_3d_model":false,"image_url":null,"decayed_at":null,"tle_current":{"epoch":"2026-09-20T21:52:45.950880Z","epoch_age_seconds":61055,"freshness":"FRESH","line1":"1 55433U 23014AU  26263.91164295 -.00000264  00000+0 -14346-4 0  9991","line2":"2 55433  70.0004 332.1293 0003394 270.3270  89.7500 14.98329778200319","mean_motion":14.98329778,"eccentricity":0.0003394,"inclination_deg":70.0004,"raan_deg":332.1293,"arg_perigee_deg":270.327,"mean_anomaly_deg":89.75,"bstar":-1.4346e-5,"rev_number":20031,"period_min":96.107013365385,"perigee_km":569.697681761,"apogee_km":574.41547316138,"semimajor_km":6950.1935774612,"source":"CELESTRAK","updated_at":"2026-09-21T09:00:33.222843Z"}}}